Starlink 32351

operational
NORAD ID: 61529 Int'l Des: 2024-183 Owner: SPXS Country: US Constellation: starlink
LEOCIRCULAR

Über Starlink 32351

Beschreibung wird geladen...

Live-Position

3D-Globus wird geladen...

Nächste Überflüge

Höhenverlauf

Altitude vs Time

uPlot chart will show altitude changes over time

Zweizeiliger Elementsatz

1 61529U 24183W 25306.45924344 .00002932 00000-0 11109-3 0 9993
2 61529 53.1613 10.5408 0001246 52.5219 307.5895 15.30194083 60219
Epoch: 2. Nov. 2025 • Age: 30 hours

Aktueller Status

Höhe 479.7 km
Geschwindigkeit 7.63 km/s
Subsatellitenpunkt 47.90°N, 120.57°E
Startdatum 15. Okt. 2024
Alter 1 years
Typ internet

Technische Details

Klassifizierung Payload
Masse 730.00 kg
Trockenmasse 700.00 kg
Gesamtmasse 730.00 kg
Länge 0.30 m
Durchmesser 4.10 m
Spannweite 29.00 m
Form Box + pan
Hersteller SPXS
Bus-Typ Starlink V2M
Phasenstatus In Orbit
Besitzer/Staat SPXS/US

Große Konstellationen

Loading constellations...